Location: Cheching
(60.0667°N, 164.2167°W)
Time: 22:50:35
(UTC+00:00)

N. Korean satellite - Visible Passes

Search period start: 26 January 2022 00:00
Search period end: 05 February 2022 00:00
Orbit: 447 x 490 km, 97.3° (Epoch: 26 January)

Date Brightness Start Highest point End Pass type
(mag) Time Alt. Az. Time Alt. Az. Time Alt. Az.
26 Jan 9.0 03:54:38 10° SSW 03:57:42 27° W 04:00:50 10° NNW visible
26 Jan 9.6 15:09:41 10° NE 15:11:57 15° E 15:14:11 10° SE visible
26 Jan 6.4 16:41:56 10° NNE 16:45:36 85° WNW 16:49:15 10° SSW visible
26 Jan 8.2 18:15:55 10° NNW 18:18:15 16° NW 18:20:35 10° W visible
27 Jan 7.4 16:12:44 10° NNE 16:16:20 52° ESE 16:19:54 10° S visible
27 Jan 7.6 17:46:14 10° N 17:49:16 25° WNW 17:52:19 10° WSW visible
28 Jan 9.8 04:30:42 10° WSW 04:32:44 14° W 04:34:48 10° NW visible
28 Jan 8.6 15:43:42 10° NNE 15:46:56 29° E 15:50:09 10° SSE visible
28 Jan 6.9 17:16:45 10° N 17:20:12 42° WNW 17:23:40 10° SW visible
29 Jan 9.2 04:00:12 10° SSW 04:03:11 25° W 04:06:13 10° NW visible
29 Jan 9.5 15:14:57 10° NE 15:17:25 17° E 15:19:53 10° SE visible
29 Jan 6.4 16:47:22 10° NNE 16:51:01 76° WNW 16:54:39 10° SSW visible
29 Jan 8.3 18:21:26 10° NNW 18:23:37 15° NW 18:25:46 10° W visible
30 Jan 7.1 16:18:06 10° NNE 16:21:44 59° ESE 16:25:19 10° S visible
30 Jan 7.7 17:51:39 10° N 17:54:36 23° WNW 17:57:33 10° WSW visible
31 Jan 9.9 04:36:21 10° WSW 04:38:08 13° W 04:39:57 10° NW visible
31 Jan 8.4 15:48:58 10° NNE 15:52:18 32° E 15:55:36 10° SSE visible
31 Jan 7.1 17:22:06 10° N 17:25:30 38° WNW 17:28:54 10° SW visible
01 Feb 9.4 04:05:38 10° SW 04:08:32 23° W 04:11:28 10° NW visible
01 Feb 9.3 15:20:07 10° NE 15:22:46 19° E 15:25:24 10° SE visible
01 Feb 6.5 16:52:39 10° NNE 16:56:18 68° WNW 16:59:55 10° SSW visible
02 Feb 10.0 14:52:05 10° ENE 14:53:06 11° E 14:54:05 10° E visible
02 Feb 6.9 16:23:19 10° NNE 16:26:58 66° ESE 16:30:35 10° S visible
02 Feb 7.9 17:56:58 10° N 17:59:48 21° WNW 18:02:37 10° WSW visible
03 Feb 10.0 04:41:56 10° WSW 04:43:25 12° W 04:44:54 10° WNW visible
03 Feb 8.2 15:54:07 10° NNE 15:57:31 35° E 16:00:53 10° SSE visible
03 Feb 7.2 17:27:19 10° N 17:30:40 34° WNW 17:33:58 10° SW visible
04 Feb 9.6 04:10:57 10° SW 04:13:44 21° W 04:16:33 10° NW visible
04 Feb 9.2 15:25:09 10° NE 15:27:57 20° E 15:30:44 10° SE visible
04 Feb 6.5 16:57:48 10° N 17:01:26 61° WNW 17:04:59 10° SSW visible
